Time,TemperatureF,DewpointF,PressureIn,WindDirection,WindDirectionDegrees,WindSpeedMPH,WindSpeedGustMPH,Humidity,HourlyPrecipIn,Conditions,Clouds,dailyrainin,SoftwareType,DateUTC
2013-08-25 00:02:00,79.4,70.4,29.97,SSE,161,3.5,3.5,74,0.00,CLR,,0.00,WeatherDisplay:10.37,2013-08-25 05:02:00,
2013-08-25 00:07:00,79.4,70.0,29.97,SSE,161,9.2,9.2,73,0.00,CLR,,0.00,WeatherDisplay:10.37,2013-08-25 05:07:00,
2013-08-25 00:12:00,79.4,70.0,29.97,SSE,161,4.6,4.6,73,0.00,CLR,,0.00,WeatherDisplay:10.37,2013-08-25 05:12:00,
2013-08-25 00:17:00,79.3,69.9,29.97,SSE,161,3.5,3.5,73,0.00,CLR,,0.00,WeatherDisplay:10.37,2013-08-25 05:17:00,
2013-08-25 00:22:00,79.2,69.8,29.97,SSE,161,5.0,5.0,73,0.00,CLR,,0.00,WeatherDisplay:10.37,2013-08-25 05:22:00,
2013-08-25 00:27:00,79.1,69.7,29.97,SSE,161,5.8,5.8,73,0.00,CLR,,0.00,WeatherDisplay:10.37,2013-08-25 05:27:00,
2013-08-25 00:32:00,79.0,70.0,29.97,SSE,161,4.6,4.6,74,0.00,CLR,,0.00,WeatherDisplay:10.37,2013-08-25 05:32:00,
2013-08-25 00:37:00,78.9,69.9,29.97,SSE,161,5.8,5.8,74,0.00,CLR,,0.00,WeatherDisplay:10.37,2013-08-25 05:37:00,
2013-08-25 00:42:00,78.7,69.7,29.97,SSE,161,5.8,5.8,74,0.00,CLR,,0.00,WeatherDisplay:10.37,2013-08-25 05:42:00,
2013-08-25 00:47:00,78.7,69.7,29.97,SSE,161,6.9,6.9,74,0.00,CLR,,0.00,WeatherDisplay:10.37,2013-08-25 05:47:00,
2013-08-25 00:52:00,78.7,70.1,29.98,SSE,161,5.8,5.8,75,0.00,CLR,,0.00,WeatherDisplay:10.37,2013-08-25 05:52:00,
2013-08-25 00:57:00,78.6,70.0,29.98,SSE,161,5.8,5.8,75,0.00,CLR,,0.00,WeatherDisplay:10.37,2013-08-25 05:57:00,
2013-08-25 01:02:00,78.5,69.9,29.97,SSE,161,5.8,5.8,75,0.00,CLR,,0.00,WeatherDisplay:10.37,2013-08-25 06:02:00,
2013-08-25 01:07:00,78.3,69.7,29.98,SSE,161,10.4,10.4,75,0.00,CLR,,0.00,WeatherDisplay:10.37,2013-08-25 06:07:00,
2013-08-25 01:12:00,78.1,69.9,29.98,SSE,161,6.9,6.9,76,0.00,CLR,,0.00,WeatherDisplay:10.37,2013-08-25 06:12:00,
2013-08-25 01:17:00,77.9,69.7,29.98,SSE,161,6.0,6.0,76,0.00,CLR,,0.00,WeatherDisplay:10.37,2013-08-25 06:17:00,
2013-08-25 01:22:00,77.8,69.6,29.98,SSE,161,6.9,6.9,76,0.00,CLR,,0.00,WeatherDisplay:10.37,2013-08-25 06:22:00,
2013-08-25 01:27:00,77.6,69.8,29.98,SSE,161,4.0,4.0,77,0.00,CLR,,0.00,WeatherDisplay:10.37,2013-08-25 06:27:00,
2013-08-25 01:32:00,77.4,69.6,29.98,SSE,161,5.8,5.8,77,0.00,CLR,,0.00,WeatherDisplay:10.37,2013-08-25 06:32:00,
2013-08-25 01:37:00,77.3,69.5,29.98,SSE,161,7.0,7.0,77,0.00,CLR,,0.00,WeatherDisplay:10.37,2013-08-25 06:37:00,
2013-08-25 01:42:00,77.1,69.7,29.98,SSE,161,4.6,4.6,78,0.00,CLR,,0.00,WeatherDisplay:10.37,2013-08-25 06:42:00,
2013-08-25 01:47:00,77.0,69.6,29.98,SSE,161,4.6,4.6,78,0.00,CLR,,0.00,WeatherDisplay:10.37,2013-08-25 06:47:00,
2013-08-25 01:52:00,76.8,69.4,29.98,SSE,161,6.9,6.9,78,0.00,CLR,,0.00,WeatherDisplay:10.37,2013-08-25 06:52:00,
2013-08-25 01:57:00,76.7,69.3,29.98,SSE,161,3.5,3.5,78,0.00,CLR,,0.00,WeatherDisplay:10.37,2013-08-25 06:57:00,
2013-08-25 02:02:00,76.6,69.6,29.98,SSE,161,3.5,3.5,79,0.00,CLR,,0.00,WeatherDisplay:10.37,2013-08-25 07:02:00,
2013-08-25 02:07:00,76.5,69.5,29.98,SSE,161,3.5,3.5,79,0.00,CLR,,0.00,WeatherDisplay:10.37,2013-08-25 07:07:00,
2013-08-25 02:12:00,76.4,69.4,29.98,SSE,161,4.6,4.6,79,0.00,CLR,,0.00,WeatherDisplay:10.37,2013-08-25 07:12:00,
2013-08-25 02:17:00,76.3,69.3,29.98,SSE,161,4.6,4.6,79,0.00,CLR,,0.00,WeatherDisplay:10.37,2013-08-25 07:17:00,
2013-08-25 02:22:00,76.2,69.2,29.99,SSE,161,3.5,3.5,79,0.00,CLR,,0.00,WeatherDisplay:10.37,2013-08-25 07:22:00,
2013-08-25 02:27:00,76.1,69.1,29.99,SSE,161,2.3,2.3,79,0.00,CLR,,0.00,WeatherDisplay:10.37,2013-08-25 07:27:00,
2013-08-25 02:32:00,76.0,69.4,29.99,SSE,161,4.6,4.6,80,0.00,CLR,,0.00,WeatherDisplay:10.37,2013-08-25 07:32:00,
2013-08-25 02:37:00,75.9,69.3,29.98,SSE,161,5.8,5.8,80,0.00,CLR,,0.00,WeatherDisplay:10.37,2013-08-25 07:37:00,
2013-08-25 02:42:00,75.7,69.1,29.99,SSE,161,4.0,4.0,80,0.00,CLR,,0.00,WeatherDisplay:10.37,2013-08-25 07:42:00,
2013-08-25 02:47:00,75.6,69.4,29.98,SSE,161,2.3,2.3,81,0.00,CLR,,0.00,WeatherDisplay:10.37,2013-08-25 07:47:00,
2013-08-25 02:52:00,75.5,69.3,29.99,SSE,161,4.6,4.6,81,0.00,CLR,,0.00,WeatherDisplay:10.37,2013-08-25 07:52:00,
2013-08-25 02:57:00,75.4,69.2,29.99,SSE,161,4.0,4.0,81,0.00,CLR,,0.00,WeatherDisplay:10.37,2013-08-25 07:57:00,
2013-08-25 03:02:00,75.3,69.1,29.99,SSE,161,10.4,10.4,81,0.00,CLR,,0.00,WeatherDisplay:10.37,2013-08-25 08:02:00,
2013-08-25 03:07:00,75.2,69.0,29.99,SSE,161,5.8,5.8,81,0.00,CLR,,0.00,WeatherDisplay:10.37,2013-08-25 08:07:00,
2013-08-25 03:12:00,75.1,68.9,29.99,SSE,161,5.8,5.8,81,0.00,CLR,,0.00,WeatherDisplay:10.37,2013-08-25 08:12:00,
2013-08-25 03:17:00,75.0,69.1,30.00,SSE,161,5.8,5.8,82,0.00,CLR,,0.00,WeatherDisplay:10.37,2013-08-25 08:17:00,
2013-08-25 03:22:00,74.9,69.0,30.00,SSE,161,5.8,5.8,82,0.00,CLR,,0.00,WeatherDisplay:10.37,2013-08-25 08:22:00,
2013-08-25 03:27:00,74.8,68.9,30.00,SSE,161,6.9,6.9,82,0.00,CLR,,0.00,WeatherDisplay:10.37,2013-08-25 08:27:00,
2013-08-25 03:32:00,74.7,68.8,30.00,SSE,161,9.2,9.2,82,0.00,CLR,,0.00,WeatherDisplay:10.37,2013-08-25 08:32:00,
2013-08-25 03:37:00,74.6,69.1,30.00,SSE,161,4.6,4.6,83,0.00,CLR,,0.00,WeatherDisplay:10.37,2013-08-25 08:37:00,
2013-08-25 03:42:00,74.4,68.9,30.00,SSE,161,3.5,3.5,83,0.00,CLR,,0.00,WeatherDisplay:10.37,2013-08-25 08:42:00,
2013-08-25 03:47:00,74.3,68.8,30.00,SSE,161,1.2,1.2,83,0.00,CLR,,0.00,WeatherDisplay:10.37,2013-08-25 08:47:00,
2013-08-25 03:52:00,74.1,69.0,30.00,SSE,161,1.2,1.2,84,0.00,CLR,,0.00,WeatherDisplay:10.37,2013-08-25 08:52:00,
2013-08-25 03:57:00,74.1,69.0,30.00,SSE,161,3.5,3.5,84,0.00,CLR,,0.00,WeatherDisplay:10.37,2013-08-25 08:57:00,
2013-08-25 04:02:00,74.0,68.9,30.01,SSE,161,3.5,3.5,84,0.00,CLR,,0.00,WeatherDisplay:10.37,2013-08-25 09:02:00,
2013-08-25 04:07:00,73.9,68.8,30.01,SSE,161,2.3,2.3,84,0.00,CLR,,0.00,WeatherDisplay:10.37,2013-08-25 09:07:00,
2013-08-25 04:12:00,73.8,68.7,30.01,SSE,161,4.6,4.6,84,0.00,CLR,,0.00,WeatherDisplay:10.37,2013-08-25 09:12:00,
2013-08-25 04:17:00,73.7,68.9,30.01,SSE,161,3.5,3.5,85,0.00,CLR,,0.00,WeatherDisplay:10.37,2013-08-25 09:17:00,
2013-08-25 04:22:00,73.7,68.9,30.01,SSE,161,3.5,3.5,85,0.00,CLR,,0.00,WeatherDisplay:10.37,2013-08-25 09:22:00,
2013-08-25 04:27:00,73.6,68.8,30.01,SSE,161,4.6,4.6,85,0.00,CLR,,0.00,WeatherDisplay:10.37,2013-08-25 09:27:00,
2013-08-25 04:32:00,73.6,68.8,30.01,SSE,161,4.6,4.6,85,0.00,CLR,,0.00,WeatherDisplay:10.37,2013-08-25 09:32:00,
2013-08-25 04:37:00,73.5,68.7,30.02,SSE,161,3.5,3.5,85,0.00,CLR,,0.00,WeatherDisplay:10.37,2013-08-25 09:37:00,
2013-08-25 04:42:00,73.5,68.7,30.02,SSE,161,4.6,4.6,85,0.00,CLR,,0.00,WeatherDisplay:10.37,2013-08-25 09:42:00,
2013-08-25 04:47:00,73.4,68.6,30.02,SSE,161,6.9,6.9,85,0.00,CLR,,0.00,WeatherDisplay:10.37,2013-08-25 09:47:00,
2013-08-25 04:52:00,73.3,68.9,30.02,SSE,161,4.6,4.6,86,0.00,CLR,,0.00,WeatherDisplay:10.37,2013-08-25 09:52:00,
2013-08-25 04:57:00,73.3,68.9,30.02,SSE,161,3.5,3.5,86,0.00,CLR,,0.00,WeatherDisplay:10.37,2013-08-25 09:57:00,
2013-08-25 05:02:00,73.3,68.9,30.03,SSE,161,2.3,2.3,86,0.00,CLR,,0.00,WeatherDisplay:10.37,2013-08-25 10:02:00,
2013-08-25 05:07:00,73.2,68.8,30.03,SSE,161,5.8,5.8,86,0.00,CLR,,0.00,WeatherDisplay:10.37,2013-08-25 10:07:00,
2013-08-25 05:12:00,73.2,68.8,30.03,SSE,161,3.5,3.5,86,0.00,CLR,,0.00,WeatherDisplay:10.37,2013-08-25 10:12:00,
2013-08-25 05:18:00,73.1,68.7,30.03,SSE,161,4.6,4.6,86,0.00,CLR,,0.00,WeatherDisplay:10.37,2013-08-25 10:18:00,
2013-08-25 05:23:00,73.1,68.7,30.03,SSE,161,2.3,2.3,86,0.00,CLR,,0.00,WeatherDisplay:10.37,2013-08-25 10:23:00,
2013-08-25 05:28:00,73.0,68.6,30.03,SSE,161,4.0,4.0,86,0.00,CLR,,0.00,WeatherDisplay:10.37,2013-08-25 10:28:00,
2013-08-25 05:33:00,73.0,68.9,30.03,SSE,161,3.5,3.5,87,0.00,CLR,,0.00,WeatherDisplay:10.37,2013-08-25 10:33:00,
2013-08-25 05:38:00,73.0,68.9,30.03,SSE,161,3.5,3.5,87,0.00,CLR,,0.00,WeatherDisplay:10.37,2013-08-25 10:38:00,
2013-08-25 05:43:00,73.0,68.9,30.03,SSE,161,5.8,5.8,87,0.00,CLR,,0.00,WeatherDisplay:10.37,2013-08-25 10:43:00,
2013-08-25 05:48:00,72.9,68.8,30.03,SSE,161,3.5,3.5,87,0.00,CLR,,0.00,WeatherDisplay:10.37,2013-08-25 10:48:00,
2013-08-25 05:53:00,72.8,68.7,30.03,SSE,161,1.2,1.3,87,0.00,CLR,,0.00,WeatherDisplay:10.37,2013-08-25 10:53:00,
2013-08-25 05:58:00,72.8,68.7,30.03,SSE,161,4.6,4.6,87,0.00,CLR,,0.00,WeatherDisplay:10.37,2013-08-25 10:58:00,
2013-08-25 06:03:00,72.7,68.9,30.03,SSE,161,2.3,0.0,88,0.00,CLR,,0.00,WeatherDisplay:10.37,2013-08-25 11:03:00,
2013-08-25 06:08:00,72.6,68.8,30.03,SSE,161,4.6,4.6,88,0.00,CLR,,0.00,WeatherDisplay:10.37,2013-08-25 11:08:00,
2013-08-25 06:13:00,72.5,68.7,30.04,SSE,161,4.0,4.0,88,0.00,CLR,,0.00,WeatherDisplay:10.37,2013-08-25 11:13:00,
2013-08-25 06:18:00,72.5,68.7,30.04,SSE,161,4.6,4.6,88,0.00,CLR,,0.00,WeatherDisplay:10.37,2013-08-25 11:18:00,
2013-08-25 06:23:00,72.5,68.7,30.04,SSE,161,6.9,6.9,88,0.00,CLR,,0.00,WeatherDisplay:10.37,2013-08-25 11:23:00,
2013-08-25 06:28:00,72.5,68.7,30.04,SSE,161,3.5,3.5,88,0.00,CLR,,0.00,WeatherDisplay:10.37,2013-08-25 11:28:00,
2013-08-25 06:33:00,72.4,68.6,30.05,SSE,161,5.0,5.0,88,0.00,CLR,,0.00,WeatherDisplay:10.37,2013-08-25 11:33:00,
2013-08-25 06:38:00,72.4,68.6,30.05,SSE,161,3.5,3.5,88,0.00,CLR,,0.00,WeatherDisplay:10.37,2013-08-25 11:38:00,
2013-08-25 06:43:00,72.4,69.0,30.05,SSE,161,3.5,3.5,89,0.00,CLR,,0.00,WeatherDisplay:10.37,2013-08-25 11:43:00,
2013-08-25 06:48:00,72.4,69.0,30.05,SSE,161,4.6,4.6,89,0.00,CLR,,0.00,WeatherDisplay:10.37,2013-08-25 11:48:00,
2013-08-25 06:53:00,72.4,69.0,30.05,SSE,161,5.8,5.8,89,0.00,CLR,,0.00,WeatherDisplay:10.37,2013-08-25 11:53:00,
2013-08-25 06:58:00,72.4,69.0,30.05,SSE,161,9.2,9.2,89,0.00,CLR,,0.00,WeatherDisplay:10.37,2013-08-25 11:58:00,
2013-08-25 07:03:00,72.4,69.0,30.05,SSE,161,5.8,5.8,89,0.00,CLR,,0.00,WeatherDisplay:10.37,2013-08-25 12:03:00,
2013-08-25 07:08:00,72.4,69.0,30.05,SSE,161,3.5,3.5,89,0.00,CLR,,0.00,WeatherDisplay:10.37,2013-08-25 12:08:00,
2013-08-25 07:13:00,72.4,69.0,30.05,SSE,161,3.5,3.5,89,0.00,CLR,,0.00,WeatherDisplay:10.37,2013-08-25 12:13:00,
2013-08-25 07:18:00,72.5,69.1,30.06,SSE,161,6.9,6.9,89,0.00,CLR,,0.00,WeatherDisplay:10.37,2013-08-25 12:18:00,
2013-08-25 07:23:00,72.5,69.1,30.06,SSE,161,5.8,5.8,89,0.00,CLR,,0.00,WeatherDisplay:10.37,2013-08-25 12:23:00,
2013-08-25 07:28:00,72.6,69.2,30.05,SSE,161,3.5,3.5,89,0.00,CLR,,0.00,WeatherDisplay:10.37,2013-08-25 12:28:00,
2013-08-25 07:33:00,72.6,69.2,30.06,SSE,161,3.5,3.5,89,0.00,CLR,,0.00,WeatherDisplay:10.37,2013-08-25 12:33:00,
2013-08-25 07:38:00,72.7,69.3,30.06,SSE,161,5.8,5.8,89,0.00,CLR,,0.00,WeatherDisplay:10.37,2013-08-25 12:38:00,
2013-08-25 07:43:00,72.8,69.4,30.06,SSE,161,9.0,9.0,89,0.00,CLR,,0.00,WeatherDisplay:10.37,2013-08-25 12:43:00,
2013-08-25 07:48:00,73.0,69.2,30.06,SSE,161,9.2,9.2,88,0.00,CLR,,0.00,WeatherDisplay:10.37,2013-08-25 12:48:00,
2013-08-25 07:53:00,73.1,69.3,30.06,SSE,161,11.5,11.5,88,0.00,CLR,,0.00,WeatherDisplay:10.37,2013-08-25 12:53:00,
2013-08-25 07:58:00,73.3,69.5,30.06,SSE,161,6.9,6.9,88,0.00,CLR,,0.00,WeatherDisplay:10.37,2013-08-25 12:58:00,
2013-08-25 08:03:00,73.5,69.7,30.07,SSE,161,8.1,8.1,88,0.00,CLR,,0.00,WeatherDisplay:10.37,2013-08-25 13:03:00,
2013-08-25 08:08:00,73.8,69.7,30.07,SSE,161,9.2,9.2,87,0.00,CLR,,0.00,WeatherDisplay:10.37,2013-08-25 13:08:00,
2013-08-25 08:13:00,74.1,70.0,30.06,SSE,161,5.8,5.8,87,0.00,CLR,,0.00,WeatherDisplay:10.37,2013-08-25 13:13:00,
2013-08-25 08:18:00,74.3,70.2,30.07,SSE,161,12.0,12.0,87,0.00,CLR,,0.00,WeatherDisplay:10.37,2013-08-25 13:18:00,
2013-08-25 08:23:00,74.6,70.1,30.07,SSE,163,11.5,11.5,86,0.00,CLR,,0.00,WeatherDisplay:10.37,2013-08-25 13:23:00,
2013-08-25 08:28:00,74.9,70.4,30.06,SSE,163,9.2,0.0,86,0.00,CLR,,0.00,WeatherDisplay:10.37,2013-08-25 13:28:00,
2013-08-25 08:33:00,75.1,70.3,30.06,SSE,163,5.8,5.8,85,0.00,CLR,,0.00,WeatherDisplay:10.37,2013-08-25 13:33:00,
2013-08-25 08:38:00,75.4,70.6,30.06,SSE,163,4.6,4.6,85,0.00,CLR,,0.00,WeatherDisplay:10.37,2013-08-25 13:38:00,
2013-08-25 08:43:00,75.7,70.9,30.07,SSE,163,11.5,11.5,85,0.00,CLR,,0.00,WeatherDisplay:10.37,2013-08-25 13:43:00,
2013-08-25 08:48:00,76.1,70.9,30.06,SSE,163,10.4,10.4,84,0.00,CLR,,0.00,WeatherDisplay:10.37,2013-08-25 13:48:00,
2013-08-25 08:53:00,76.4,71.2,30.06,SSE,163,6.9,6.9,84,0.00,CLR,,0.00,WeatherDisplay:10.37,2013-08-25 13:53:00,
2013-08-25 08:58:00,76.6,71.0,30.06,SSE,163,10.4,10.4,83,0.00,CLR,,0.00,WeatherDisplay:10.37,2013-08-25 13:58:00,
2013-08-25 09:03:00,77.0,71.4,30.06,SSE,163,5.8,5.8,83,0.00,CLR,,0.00,WeatherDisplay:10.37,2013-08-25 14:03:00,
2013-08-25 09:08:00,77.3,71.4,30.06,SSE,163,9.2,9.2,82,0.00,CLR,,0.00,WeatherDisplay:10.37,2013-08-25 14:08:00,
2013-08-25 09:13:00,77.8,71.9,30.05,SSE,163,11.5,11.5,82,0.00,CLR,,0.00,WeatherDisplay:10.37,2013-08-25 14:13:00,
2013-08-25 09:18:00,78.1,71.8,30.05,SSE,163,4.6,4.6,81,0.00,CLR,,0.00,WeatherDisplay:10.37,2013-08-25 14:18:00,
2013-08-25 09:23:00,78.6,72.3,30.05,SSE,163,5.8,5.8,81,0.00,CLR,,0.00,WeatherDisplay:10.37,2013-08-25 14:23:00,
2013-08-25 09:28:00,78.9,72.2,30.05,SSE,163,3.5,3.5,80,0.00,CLR,,0.00,WeatherDisplay:10.37,2013-08-25 14:28:00,
2013-08-25 09:33:00,79.5,72.4,30.05,SSE,163,10.4,10.4,79,0.00,CLR,,0.00,WeatherDisplay:10.37,2013-08-25 14:33:00,
2013-08-25 09:38:00,79.7,72.6,30.05,SSE,163,5.8,5.8,79,0.00,CLR,,0.00,WeatherDisplay:10.37,2013-08-25 14:38:00,
2013-08-25 09:43:00,80.1,72.6,30.05,SSE,163,10.4,10.4,78,0.00,CLR,,0.00,WeatherDisplay:10.37,2013-08-25 14:43:00,
2013-08-25 09:48:00,80.5,72.6,30.05,SSE,163,5.0,5.0,77,0.00,CLR,,0.00,WeatherDisplay:10.37,2013-08-25 14:48:00,
2013-08-25 09:53:00,80.9,73.0,30.05,SSE,163,4.6,4.6,77,0.00,CLR,,0.00,WeatherDisplay:10.37,2013-08-25 14:53:00,
2013-08-25 09:58:00,81.3,73.4,30.05,SSE,163,2.3,2.3,77,0.00,CLR,,0.00,WeatherDisplay:10.37,2013-08-25 14:58:00,
2013-08-25 10:03:00,81.7,73.4,30.04,SSE,163,7.0,7.0,76,0.00,CLR,,0.00,WeatherDisplay:10.37,2013-08-25 15:03:00,
2013-08-25 10:08:00,82.2,73.9,30.05,SSE,163,2.3,2.3,76,0.00,CLR,,0.00,WeatherDisplay:10.37,2013-08-25 15:08:00,
2013-08-25 10:13:00,82.8,73.7,30.04,SSE,163,3.5,3.5,74,0.00,CLR,,0.00,WeatherDisplay:10.37,2013-08-25 15:13:00,
2013-08-25 10:18:00,83.3,73.7,30.04,SSE,163,4.6,4.6,73,0.00,CLR,,0.00,WeatherDisplay:10.37,2013-08-25 15:18:00,
2013-08-25 10:23:00,83.6,74.0,30.04,SSE,163,9.0,9.0,73,0.00,CLR,,0.00,WeatherDisplay:10.37,2013-08-25 15:23:00,
2013-08-25 10:28:00,83.5,73.5,30.05,SSE,163,11.5,11.5,72,0.00,CLR,,0.00,WeatherDisplay:10.37,2013-08-25 15:28:00,
2013-08-25 10:33:00,83.8,74.2,30.05,SSE,163,3.5,3.5,73,0.00,CLR,,0.00,WeatherDisplay:10.37,2013-08-25 15:33:00,
2013-08-25 10:38:00,84.2,74.2,30.05,SSE,163,5.8,5.8,72,0.00,CLR,,0.00,WeatherDisplay:10.37,2013-08-25 15:38:00,
2013-08-25 10:43:00,84.5,74.1,30.05,SSE,163,10.4,10.4,71,0.00,CLR,,0.00,WeatherDisplay:10.37,2013-08-25 15:43:00,
2013-08-25 10:48:00,84.5,74.1,30.05,SSE,164,6.9,6.9,71,0.00,CLR,,0.00,WeatherDisplay:10.37,2013-08-25 15:48:00,
2013-08-25 10:53:00,84.8,74.3,30.05,SSE,164,1.2,1.2,71,0.00,CLR,,0.00,WeatherDisplay:10.37,2013-08-25 15:53:00,
2013-08-25 10:58:00,85.1,74.6,30.05,SSE,164,3.5,3.5,71,0.00,CLR,,0.00,WeatherDisplay:10.37,2013-08-25 15:58:00,
2013-08-25 11:03:00,85.4,74.5,30.05,SSE,164,4.6,4.6,70,0.00,CLR,,0.00,WeatherDisplay:10.37,2013-08-25 16:03:00,
2013-08-25 11:08:00,86.0,75.5,30.05,SSE,164,0.0,0.1,71,0.00,CLR,,0.00,WeatherDisplay:10.37,2013-08-25 16:08:00,
2013-08-25 11:13:00,86.0,74.2,30.05,SSE,165,9.2,9.2,68,0.00,CLR,,0.00,WeatherDisplay:10.37,2013-08-25 16:13:00,
2013-08-25 11:18:00,86.1,74.3,30.05,SSE,164,6.9,6.9,68,0.00,CLR,,0.00,WeatherDisplay:10.37,2013-08-25 16:18:00,
2013-08-25 11:23:00,86.0,74.6,30.04,SSE,165,1.2,0.0,69,0.00,CLR,,0.00,WeatherDisplay:10.37,2013-08-25 16:23:00,
2013-08-25 11:28:00,86.8,75.0,30.04,SSE,165,6.0,6.0,68,0.00,CLR,,0.00,WeatherDisplay:10.37,2013-08-25 16:28:00,
2013-08-25 11:33:00,86.6,74.8,30.04,SSE,164,3.5,3.5,68,0.00,CLR,,0.00,WeatherDisplay:10.37,2013-08-25 16:33:00,
2013-08-25 11:38:00,86.5,74.2,30.03,SSE,165,9.2,9.2,67,0.00,CLR,,0.00,WeatherDisplay:10.37,2013-08-25 16:38:00,
2013-08-25 11:43:00,86.6,74.8,30.03,SSE,164,5.8,5.8,68,0.00,CLR,,0.00,WeatherDisplay:10.37,2013-08-25 16:43:00,
2013-08-25 11:48:00,87.2,74.5,30.03,SSE,165,4.6,4.6,66,0.00,CLR,,0.00,WeatherDisplay:10.37,2013-08-25 16:48:00,
2013-08-25 11:53:00,87.1,74.8,30.03,SSE,165,1.2,1.2,67,0.00,CLR,,0.00,WeatherDisplay:10.37,2013-08-25 16:53:00,
2013-08-25 11:58:00,87.8,74.6,30.03,SSE,165,1.2,1.2,65,0.00,CLR,,0.00,WeatherDisplay:10.37,2013-08-25 16:58:00,
2013-08-25 12:03:00,88.4,74.7,30.03,SSE,165,6.9,6.9,64,0.00,CLR,,0.00,WeatherDisplay:10.37,2013-08-25 17:03:00,
2013-08-25 12:08:00,88.4,74.7,30.03,SSE,165,5.8,5.8,64,0.00,CLR,,0.00,WeatherDisplay:10.37,2013-08-25 17:08:00,
2013-08-25 12:13:00,88.5,74.3,30.02,SSE,165,3.5,3.5,63,0.00,CLR,,0.00,WeatherDisplay:10.37,2013-08-25 17:13:00,
2013-08-25 12:18:00,88.6,73.9,30.02,SSE,165,3.5,3.5,62,0.00,CLR,,0.00,WeatherDisplay:10.37,2013-08-25 17:18:00,
2013-08-25 12:23:00,88.5,75.2,30.02,SSE,165,2.3,2.3,65,0.00,CLR,,0.00,WeatherDisplay:10.37,2013-08-25 17:23:00,
2013-08-25 12:28:00,88.7,75.0,30.02,SSE,165,3.5,0.0,64,0.00,CLR,,0.00,WeatherDisplay:10.37,2013-08-25 17:28:00,
2013-08-25 12:33:00,89.4,75.6,30.01,SSE,164,3.0,3.0,64,0.00,CLR,,0.00,WeatherDisplay:10.37,2013-08-25 17:33:00,
2013-08-25 12:38:00,89.5,75.2,30.01,SSE,165,5.0,5.0,63,0.00,CLR,,0.00,WeatherDisplay:10.37,2013-08-25 17:38:00,
2013-08-25 12:43:00,89.3,74.6,30.01,SSE,165,4.6,4.6,62,0.00,CLR,,0.00,WeatherDisplay:10.37,2013-08-25 17:43:00,
2013-08-25 12:48:00,89.2,75.4,30.01,SSE,164,3.0,3.0,64,0.00,CLR,,0.00,WeatherDisplay:10.37,2013-08-25 17:48:00,
2013-08-25 12:53:00,89.0,74.8,30.01,SSE,165,5.8,5.8,63,0.00,CLR,,0.00,WeatherDisplay:10.37,2013-08-25 17:53:00,
2013-08-25 12:58:00,89.6,74.9,30.00,SSE,165,3.5,3.5,62,0.00,CLR,,0.00,WeatherDisplay:10.37,2013-08-25 17:58:00,
2013-08-25 13:03:00,90.3,75.5,30.01,SSE,165,3.5,3.5,62,0.00,CLR,,0.00,WeatherDisplay:10.37,2013-08-25 18:03:00,
2013-08-25 13:08:00,91.0,75.7,30.00,SSE,165,3.5,3.5,61,0.00,CLR,,0.00,WeatherDisplay:10.37,2013-08-25 18:08:00,
2013-08-25 13:13:00,90.7,75.4,30.00,SSE,165,8.0,8.0,61,0.00,CLR,,0.00,WeatherDisplay:10.37,2013-08-25 18:13:00,
2013-08-25 13:18:00,90.0,74.7,30.00,SSE,165,8.1,8.1,61,0.00,CLR,,0.00,WeatherDisplay:10.37,2013-08-25 18:18:00,
2013-08-25 13:23:00,89.9,75.1,30.00,SSE,165,1.2,1.2,62,0.00,CLR,,0.00,WeatherDisplay:10.37,2013-08-25 18:23:00,
2013-08-25 13:28:00,89.8,75.5,30.00,SSE,165,1.2,1.2,63,0.00,CLR,,0.00,WeatherDisplay:10.37,2013-08-25 18:28:00,
2013-08-25 13:33:00,90.2,74.9,30.00,SSE,164,4.6,4.6,61,0.00,CLR,,0.00,WeatherDisplay:10.37,2013-08-25 18:33:00,
2013-08-25 13:38:00,90.3,74.5,30.00,SSE,161,11.5,11.5,60,0.00,CLR,,0.00,WeatherDisplay:10.37,2013-08-25 18:38:00,
2013-08-25 13:43:00,89.8,74.1,30.00,SSE,162,11.5,11.5,60,0.00,CLR,,0.00,WeatherDisplay:10.37,2013-08-25 18:43:00,
2013-08-25 13:48:00,90.0,74.7,30.00,SSE,162,11.5,11.5,61,0.00,CLR,,0.00,WeatherDisplay:10.37,2013-08-25 18:48:00,
2013-08-25 13:53:00,90.0,74.7,30.00,SSE,161,3.5,3.5,61,0.00,CLR,,0.00,WeatherDisplay:10.37,2013-08-25 18:53:00,
2013-08-25 13:58:00,90.7,74.9,30.00,SSE,162,1.2,1.2,60,0.00,CLR,,0.00,WeatherDisplay:10.37,2013-08-25 18:58:00,
2013-08-25 14:03:00,91.8,74.9,30.00,SSE,162,6.0,6.0,58,0.00,CLR,,0.00,WeatherDisplay:10.37,2013-08-25 19:03:00,
2013-08-25 14:08:00,91.6,74.7,30.00,SSE,161,9.0,9.0,58,0.00,CLR,,0.00,WeatherDisplay:10.37,2013-08-25 19:08:00,
2013-08-25 14:13:00,91.0,74.7,30.00,SSE,161,2.3,2.3,59,0.00,CLR,,0.00,WeatherDisplay:10.37,2013-08-25 19:13:00,
2013-08-25 14:18:00,91.4,75.6,29.99,SSE,162,1.2,1.2,60,0.00,CLR,,0.00,WeatherDisplay:10.37,2013-08-25 19:18:00,
2013-08-25 14:23:00,91.8,74.4,29.99,SSE,162,3.0,3.0,57,0.00,CLR,,0.00,WeatherDisplay:10.37,2013-08-25 19:23:00,
2013-08-25 14:28:00,91.4,73.5,29.99,SSE,162,4.6,4.6,56,0.00,CLR,,0.00,WeatherDisplay:10.37,2013-08-25 19:28:00,
2013-08-25 14:33:00,90.9,73.6,29.99,SSE,162,6.9,6.9,57,0.00,CLR,,0.00,WeatherDisplay:10.37,2013-08-25 19:33:00,
2013-08-25 14:38:00,91.4,75.1,29.99,SSE,161,2.3,2.3,59,0.00,CLR,,0.00,WeatherDisplay:10.37,2013-08-25 19:38:00,
2013-08-25 14:43:00,92.1,75.2,29.98,SSE,161,6.9,6.9,58,0.00,CLR,,0.00,WeatherDisplay:10.37,2013-08-25 19:43:00,
2013-08-25 14:48:00,91.4,74.5,29.98,SSE,162,5.8,5.8,58,0.00,CLR,,0.00,WeatherDisplay:10.37,2013-08-25 19:48:00,
2013-08-25 14:53:00,91.3,74.4,29.98,SSE,161,10.0,10.0,58,0.00,CLR,,0.00,WeatherDisplay:10.37,2013-08-25 19:53:00,
2013-08-25 14:58:00,91.7,74.3,29.98,SSE,161,5.8,5.8,57,0.00,CLR,,0.00,WeatherDisplay:10.37,2013-08-25 19:58:00,
2013-08-25 15:03:00,91.7,75.3,29.98,SSE,162,3.5,3.5,59,0.00,CLR,,0.00,WeatherDisplay:10.37,2013-08-25 20:03:00,
2013-08-25 15:08:00,91.1,73.2,29.98,SSE,162,6.9,6.9,56,0.00,CLR,,0.00,WeatherDisplay:10.37,2013-08-25 20:08:00,
2013-08-25 15:13:00,91.3,75.0,29.98,SSE,162,4.0,4.0,59,0.00,CLR,,0.00,WeatherDisplay:10.37,2013-08-25 20:13:00,
2013-08-25 15:18:00,91.6,74.2,29.97,SSE,162,4.6,4.6,57,0.00,CLR,,0.00,WeatherDisplay:10.37,2013-08-25 20:18:00,
2013-08-25 15:23:00,91.7,72.1,29.97,SSE,161,6.9,6.9,53,0.00,CLR,,0.00,WeatherDisplay:10.37,2013-08-25 20:23:00,
2013-08-25 15:28:00,91.5,73.6,29.97,SSE,161,1.2,1.2,56,0.00,CLR,,0.00,WeatherDisplay:10.37,2013-08-25 20:28:00,
2013-08-25 15:33:00,92.0,73.0,29.97,SSE,162,10.4,10.4,54,0.00,CLR,,0.00,WeatherDisplay:10.37,2013-08-25 20:33:00,
2013-08-25 15:38:00,92.2,72.6,29.97,SSE,162,3.5,3.5,53,0.00,CLR,,0.00,WeatherDisplay:10.37,2013-08-25 20:38:00,
2013-08-25 15:43:00,92.4,73.3,29.97,SSE,162,6.9,6.9,54,0.00,CLR,,0.00,WeatherDisplay:10.37,2013-08-25 20:43:00,
2013-08-25 15:48:00,91.9,72.9,29.97,SSE,162,9.2,9.2,54,0.00,CLR,,0.00,WeatherDisplay:10.37,2013-08-25 20:48:00,
2013-08-25 15:53:00,91.3,71.8,29.97,SSE,162,8.1,8.1,53,0.00,CLR,,0.00,WeatherDisplay:10.37,2013-08-25 20:53:00,
2013-08-25 15:58:00,91.0,71.5,29.97,SSE,161,4.6,4.6,53,0.00,CLR,,0.00,WeatherDisplay:10.37,2013-08-25 20:58:00,
2013-08-25 16:03:00,90.7,72.3,29.97,SSE,162,11.5,11.5,55,0.00,CLR,,0.00,WeatherDisplay:10.37,2013-08-25 21:03:00,
2013-08-25 16:08:00,90.7,73.4,29.97,SSE,161,10.4,10.4,57,0.00,CLR,,0.00,WeatherDisplay:10.37,2013-08-25 21:08:00,
2013-08-25 16:13:00,91.0,74.2,29.96,SSE,162,4.6,4.6,58,0.00,CLR,,0.00,WeatherDisplay:10.37,2013-08-25 21:13:00,
2013-08-25 16:19:00,91.4,73.5,29.96,SSE,165,12.7,12.7,56,0.00,CLR,,0.00,WeatherDisplay:10.37,2013-08-25 21:19:00,
2013-08-25 16:24:00,90.8,72.9,29.96,SSE,165,4.6,4.6,56,0.00,CLR,,0.00,WeatherDisplay:10.37,2013-08-25 21:24:00,
2013-08-25 16:29:00,90.4,73.1,29.96,SSE,165,3.5,3.5,57,0.00,CLR,,0.00,WeatherDisplay:10.37,2013-08-25 21:29:00,
2013-08-25 16:34:00,90.6,72.8,29.96,SSE,164,10.4,10.4,56,0.00,CLR,,0.00,WeatherDisplay:10.37,2013-08-25 21:34:00,
2013-08-25 16:39:00,90.9,73.0,29.96,SSE,165,3.5,3.5,56,0.00,CLR,,0.00,WeatherDisplay:10.37,2013-08-25 21:39:00,
2013-08-25 16:44:00,91.3,72.9,29.96,SSE,164,5.8,5.8,55,0.00,CLR,,0.00,WeatherDisplay:10.37,2013-08-25 21:44:00,
2013-08-25 16:49:00,91.3,73.4,29.96,SSE,165,10.0,10.0,56,0.00,CLR,,0.00,WeatherDisplay:10.37,2013-08-25 21:49:00,
2013-08-25 16:54:00,90.9,73.0,29.96,South,175,9.2,9.2,56,0.00,CLR,,0.00,WeatherDisplay:10.37,2013-08-25 21:54:00,
2013-08-25 16:59:00,90.1,72.3,29.97,South,175,10.4,10.4,56,0.00,CLR,,0.00,WeatherDisplay:10.37,2013-08-25 21:59:00,
2013-08-25 17:04:00,89.6,71.8,29.97,South,175,6.9,6.9,56,0.00,CLR,,0.00,WeatherDisplay:10.37,2013-08-25 22:04:00,
2013-08-25 17:09:00,89.9,72.1,29.97,South,175,6.9,6.9,56,0.00,CLR,,0.00,WeatherDisplay:10.37,2013-08-25 22:09:00,
2013-08-25 17:14:00,90.0,72.7,29.97,South,175,5.8,5.8,57,0.00,CLR,,0.00,WeatherDisplay:10.37,2013-08-25 22:14:00,
2013-08-25 17:19:00,89.8,72.5,29.97,South,173,4.6,4.6,57,0.00,CLR,,0.00,WeatherDisplay:10.37,2013-08-25 22:19:00,
2013-08-25 17:24:00,89.8,72.5,29.97,South,173,4.6,4.6,57,0.00,CLR,,0.00,WeatherDisplay:10.37,2013-08-25 22:24:00,
2013-08-25 17:29:00,90.0,72.2,29.97,South,173,8.1,8.1,56,0.00,CLR,,0.00,WeatherDisplay:10.37,2013-08-25 22:29:00,
2013-08-25 17:34:00,90.1,72.8,29.96,South,172,4.6,4.6,57,0.00,CLR,,0.00,WeatherDisplay:10.37,2013-08-25 22:34:00,
2013-08-25 17:39:00,90.1,72.8,29.97,South,171,10.4,10.4,57,0.00,CLR,,0.00,WeatherDisplay:10.37,2013-08-25 22:39:00,
2013-08-25 17:44:00,90.2,72.4,29.97,South,171,5.8,5.8,56,0.00,CLR,,0.00,WeatherDisplay:10.37,2013-08-25 22:44:00,
2013-08-25 17:49:00,90.0,72.7,29.97,South,171,6.9,6.9,57,0.00,CLR,,0.00,WeatherDisplay:10.37,2013-08-25 22:49:00,
2013-08-25 17:54:00,89.9,72.1,29.97,South,171,4.6,4.6,56,0.00,CLR,,0.00,WeatherDisplay:10.37,2013-08-25 22:54:00,
2013-08-25 17:59:00,89.8,72.0,29.97,South,171,3.5,3.5,56,0.00,CLR,,0.00,WeatherDisplay:10.37,2013-08-25 22:59:00,
2013-08-25 18:04:00,89.8,72.5,29.97,South,171,3.0,3.0,57,0.00,CLR,,0.00,WeatherDisplay:10.37,2013-08-25 23:04:00,
2013-08-25 18:09:00,89.6,71.3,29.97,South,172,15.0,15.0,55,0.00,CLR,,0.00,WeatherDisplay:10.37,2013-08-25 23:09:00,
2013-08-25 18:14:00,89.3,71.5,29.97,South,173,10.4,10.4,56,0.00,CLR,,0.00,WeatherDisplay:10.37,2013-08-25 23:14:00,
2013-08-25 18:19:00,89.0,72.3,29.97,South,173,5.8,5.8,58,0.00,CLR,,0.00,WeatherDisplay:10.37,2013-08-25 23:19:00,
2013-08-25 18:24:00,88.8,72.1,29.98,South,172,5.8,5.8,58,0.00,CLR,,0.00,WeatherDisplay:10.37,2013-08-25 23:24:00,
2013-08-25 18:29:00,88.6,71.9,29.98,South,173,10.4,10.4,58,0.00,CLR,,0.00,WeatherDisplay:10.37,2013-08-25 23:29:00,
2013-08-25 18:34:00,88.5,72.3,29.98,South,173,5.8,5.8,59,0.00,CLR,,0.00,WeatherDisplay:10.37,2013-08-25 23:34:00,
2013-08-25 18:39:00,88.4,72.7,29.97,South,172,6.9,6.9,60,0.00,CLR,,0.00,WeatherDisplay:10.37,2013-08-25 23:39:00,
2013-08-25 18:44:00,88.3,72.2,29.98,South,171,11.5,11.5,59,0.00,CLR,,0.00,WeatherDisplay:10.37,2013-08-25 23:44:00,
2013-08-25 18:49:00,88.1,72.5,29.98,South,171,6.9,6.9,60,0.00,CLR,,0.00,WeatherDisplay:10.37,2013-08-25 23:49:00,
2013-08-25 18:54:00,87.9,72.8,29.97,South,171,8.1,8.1,61,0.00,CLR,,0.00,WeatherDisplay:10.37,2013-08-25 23:54:00,
2013-08-25 18:59:00,87.7,72.6,29.97,South,171,9.2,9.2,61,0.00,CLR,,0.00,WeatherDisplay:10.37,2013-08-25 23:59:00,
2013-08-25 19:04:00,87.5,72.4,29.97,South,170,5.8,5.8,61,0.00,CLR,,0.00,WeatherDisplay:10.37,2013-08-26 00:04:00,
2013-08-25 19:09:00,87.3,72.7,29.97,South,169,3.5,3.5,62,0.00,CLR,,0.00,WeatherDisplay:10.37,2013-08-26 00:09:00,
2013-08-25 19:14:00,87.1,72.5,29.98,South,170,6.9,6.9,62,0.00,CLR,,0.00,WeatherDisplay:10.37,2013-08-26 00:14:00,
2013-08-25 19:19:00,87.1,73.0,29.98,South,170,3.5,3.5,63,0.00,CLR,,0.00,WeatherDisplay:10.37,2013-08-26 00:19:00,
2013-08-25 19:24:00,87.0,72.9,29.97,South,170,5.8,5.8,63,0.00,CLR,,0.00,WeatherDisplay:10.37,2013-08-26 00:24:00,
2013-08-25 19:29:00,86.8,72.7,29.98,South,169,3.5,3.5,63,0.00,CLR,,0.00,WeatherDisplay:10.37,2013-08-26 00:29:00,
2013-08-25 19:34:00,86.6,73.0,29.97,South,169,6.9,6.9,64,0.00,CLR,,0.00,WeatherDisplay:10.37,2013-08-26 00:34:00,
2013-08-25 19:39:00,86.4,72.8,29.98,South,170,6.9,6.9,64,0.00,CLR,,0.00,WeatherDisplay:10.37,2013-08-26 00:39:00,
2013-08-25 19:44:00,86.3,73.1,29.98,South,169,3.5,3.5,65,0.00,CLR,,0.00,WeatherDisplay:10.37,2013-08-26 00:44:00,
2013-08-25 19:49:00,86.1,73.0,29.98,South,169,6.9,6.9,65,0.00,CLR,,0.00,WeatherDisplay:10.37,2013-08-26 00:49:00,
2013-08-25 19:54:00,85.9,72.8,29.98,South,170,6.9,6.9,65,0.00,CLR,,0.00,WeatherDisplay:10.37,2013-08-26 00:54:00,
2013-08-25 19:59:00,85.8,72.7,29.98,South,170,11.5,11.5,65,0.00,CLR,,0.00,WeatherDisplay:10.37,2013-08-26 00:59:00,
2013-08-25 20:04:00,85.6,72.5,29.97,South,169,3.5,3.5,65,0.00,CLR,,0.00,WeatherDisplay:10.37,2013-08-26 01:04:00,
2013-08-25 20:09:00,85.4,72.3,29.98,South,170,6.9,6.9,65,0.00,CLR,,0.00,WeatherDisplay:10.37,2013-08-26 01:09:00,
2013-08-25 20:14:00,85.2,72.6,29.97,South,169,3.5,3.5,66,0.00,CLR,,0.00,WeatherDisplay:10.37,2013-08-26 01:14:00,
2013-08-25 20:19:00,85.0,72.4,29.98,South,170,3.5,3.5,66,0.00,CLR,,0.00,WeatherDisplay:10.37,2013-08-26 01:19:00,
2013-08-25 20:24:00,84.9,72.3,29.98,South,170,1.2,1.2,66,0.00,CLR,,0.00,WeatherDisplay:10.37,2013-08-26 01:24:00,
2013-08-25 20:29:00,84.7,72.1,29.98,South,170,3.5,3.5,66,0.00,CLR,,0.00,WeatherDisplay:10.37,2013-08-26 01:29:00,
2013-08-25 20:34:00,84.6,72.4,29.98,South,169,3.5,3.5,67,0.00,CLR,,0.00,WeatherDisplay:10.37,2013-08-26 01:34:00,
2013-08-25 20:39:00,84.4,72.2,29.98,South,170,1.2,1.2,67,0.00,CLR,,0.00,WeatherDisplay:10.37,2013-08-26 01:39:00,
2013-08-25 20:44:00,84.2,72.0,29.98,South,170,1.2,1.2,67,0.00,CLR,,0.00,WeatherDisplay:10.37,2013-08-26 01:44:00,
2013-08-25 20:49:00,84.0,72.3,29.98,South,169,2.3,2.3,68,0.00,CLR,,0.00,WeatherDisplay:10.37,2013-08-26 01:49:00,
2013-08-25 20:54:00,83.9,72.2,29.99,South,170,3.5,3.5,68,0.00,CLR,,0.00,WeatherDisplay:10.37,2013-08-26 01:54:00,
2013-08-25 20:59:00,83.7,72.0,29.99,South,170,3.5,3.5,68,0.00,CLR,,0.00,WeatherDisplay:10.37,2013-08-26 01:59:00,
2013-08-25 21:04:00,83.7,72.0,29.99,South,170,0.0,0.0,68,0.00,CLR,,0.00,WeatherDisplay:10.37,2013-08-26 02:04:00,
2013-08-25 21:09:00,83.6,71.9,29.99,South,170,3.5,3.5,68,0.00,CLR,,0.00,WeatherDisplay:10.37,2013-08-26 02:09:00,
2013-08-25 21:14:00,83.4,72.2,29.99,South,170,4.6,4.6,69,0.00,CLR,,0.00,WeatherDisplay:10.37,2013-08-26 02:14:00,
2013-08-25 21:19:00,83.3,72.1,29.99,South,170,3.5,3.5,69,0.00,CLR,,0.00,WeatherDisplay:10.37,2013-08-26 02:19:00,
2013-08-25 21:24:00,83.2,72.0,29.99,South,169,3.5,3.5,69,0.00,CLR,,0.00,WeatherDisplay:10.37,2013-08-26 02:24:00,
2013-08-25 21:29:00,83.0,72.2,29.99,South,170,2.3,2.3,70,0.00,CLR,,0.00,WeatherDisplay:10.37,2013-08-26 02:29:00,
2013-08-25 21:34:00,82.9,72.1,29.99,South,169,3.5,3.5,70,0.00,CLR,,0.00,WeatherDisplay:10.37,2013-08-26 02:34:00,
2013-08-25 21:39:00,82.7,71.9,30.00,South,170,5.0,5.0,70,0.00,CLR,,0.00,WeatherDisplay:10.37,2013-08-26 02:39:00,
2013-08-25 21:44:00,82.6,72.2,30.00,South,170,1.2,1.2,71,0.00,CLR,,0.00,WeatherDisplay:10.37,2013-08-26 02:44:00,
2013-08-25 21:49:00,82.5,72.1,30.00,South,170,3.5,3.5,71,0.00,CLR,,0.00,WeatherDisplay:10.37,2013-08-26 02:49:00,
2013-08-25 21:54:00,82.3,72.4,30.00,South,169,4.6,4.6,72,0.00,CLR,,0.00,WeatherDisplay:10.37,2013-08-26 02:54:00,
2013-08-25 21:59:00,82.2,72.3,30.00,South,170,2.3,2.3,72,0.00,CLR,,0.00,WeatherDisplay:10.37,2013-08-26 02:59:00,
2013-08-25 22:04:00,82.1,72.2,30.00,South,170,2.3,2.3,72,0.00,CLR,,0.00,WeatherDisplay:10.37,2013-08-26 03:04:00,
2013-08-25 22:09:00,82.0,72.1,30.00,South,169,3.5,3.5,72,0.00,CLR,,0.00,WeatherDisplay:10.37,2013-08-26 03:09:00,
2013-08-25 22:14:00,81.9,72.4,30.00,South,170,6.0,6.0,73,0.00,CLR,,0.00,WeatherDisplay:10.37,2013-08-26 03:14:00,
2013-08-25 22:19:00,81.8,72.3,30.00,South,170,4.0,4.0,73,0.00,CLR,,0.00,WeatherDisplay:10.37,2013-08-26 03:19:00,
2013-08-25 22:24:00,81.8,72.3,30.00,South,170,2.3,2.3,73,0.00,CLR,,0.00,WeatherDisplay:10.37,2013-08-26 03:24:00,
2013-08-25 22:29:00,81.7,72.2,30.00,South,170,6.9,6.9,73,0.00,CLR,,0.00,WeatherDisplay:10.37,2013-08-26 03:29:00,
2013-08-25 22:34:00,81.5,72.4,30.00,South,170,4.6,4.6,74,0.00,CLR,,0.00,WeatherDisplay:10.37,2013-08-26 03:34:00,
2013-08-25 22:39:00,81.4,72.3,30.00,South,169,2.3,2.3,74,0.00,CLR,,0.00,WeatherDisplay:10.37,2013-08-26 03:39:00,
2013-08-25 22:44:00,81.3,72.2,30.00,South,169,3.5,3.5,74,0.00,CLR,,0.00,WeatherDisplay:10.37,2013-08-26 03:44:00,
2013-08-25 22:49:00,81.2,72.5,30.00,South,170,5.8,5.8,75,0.00,CLR,,0.00,WeatherDisplay:10.37,2013-08-26 03:49:00,
2013-08-25 22:54:00,81.1,72.4,30.00,South,170,3.5,3.5,75,0.00,CLR,,0.00,WeatherDisplay:10.37,2013-08-26 03:54:00,
2013-08-25 22:59:00,81.0,72.3,30.00,South,170,4.6,4.6,75,0.00,CLR,,0.00,WeatherDisplay:10.37,2013-08-26 03:59:00,
2013-08-25 23:01:00,80.9,72.2,30.00,South,170,3.5,3.5,75,0.00,CLR,,0.00,WeatherDisplay:10.37,2013-08-26 04:01:00,
2013-08-25 23:06:00,80.8,72.1,30.00,South,170,3.5,3.5,75,0.00,CLR,,0.00,WeatherDisplay:10.37,2013-08-26 04:06:00,
2013-08-25 23:11:00,80.8,72.1,30.00,South,170,6.9,6.9,75,0.00,CLR,,0.00,WeatherDisplay:10.37,2013-08-26 04:11:00,
2013-08-25 23:16:00,80.8,72.1,30.00,South,169,5.8,5.8,75,0.00,CLR,,0.00,WeatherDisplay:10.37,2013-08-26 04:16:00,
2013-08-25 23:21:00,80.7,72.0,30.00,South,170,3.5,3.5,75,0.00,CLR,,0.00,WeatherDisplay:10.37,2013-08-26 04:21:00,
2013-08-25 23:26:00,80.7,72.0,30.00,South,170,3.5,3.5,75,0.00,CLR,,0.00,WeatherDisplay:10.37,2013-08-26 04:26:00,
2013-08-25 23:31:00,80.7,72.0,30.00,South,170,3.5,3.5,75,0.00,CLR,,0.00,WeatherDisplay:10.37,2013-08-26 04:31:00,
2013-08-25 23:36:00,80.6,71.9,30.00,South,170,5.8,5.8,75,0.00,CLR,,0.00,WeatherDisplay:10.37,2013-08-26 04:36:00,
2013-08-25 23:41:00,80.5,71.8,30.00,South,170,1.2,1.2,75,0.00,CLR,,0.00,WeatherDisplay:10.37,2013-08-26 04:41:00,
2013-08-25 23:46:00,80.5,71.8,30.00,South,169,3.5,3.5,75,0.00,CLR,,0.00,WeatherDisplay:10.37,2013-08-26 04:46:00,
2013-08-25 23:51:00,80.5,71.4,30.00,South,169,3.5,3.5,74,0.00,CLR,,0.00,WeatherDisplay:10.37,2013-08-26 04:51:00,
2013-08-25 23:56:00,80.4,71.3,30.00,South,170,4.6,4.6,74,0.00,CLR,,0.00,WeatherDisplay:10.37,2013-08-26 04:56:00,